TimeCST,TemperatureF,Dew PointF,Humidity,Sea Level PressureIn,VisibilityMPH,Wind Direction,Wind SpeedMPH,Gust SpeedMPH,PrecipitationIn,Events,Conditions,WindDirDegrees,DateUTC
12:15 AM,53.6,51.8,94,29.56,7.0,Calm,Calm,-,0.03,Rain,Light Rain,0,2012-11-11 06:15:00
12:35 AM,53.6,51.8,94,29.58,7.0,SE,6.9,-,0.03,,Overcast,140,2012-11-11 06:35:00
12:55 AM,53.6,51.8,94,29.56,10.0,SSE,8.1,-,0.03,Rain,Light Rain,150,2012-11-11 06:55:00
1:15 AM,53.6,51.8,94,29.54,10.0,SE,13.8,-,0.01,,Mostly Cloudy,140,2012-11-11 07:15:00
1:35 AM,55.4,53.6,94,29.53,10.0,SSE,16.1,24.2,0.01,,Overcast,160,2012-11-11 07:35:00
1:55 AM,55.4,53.6,94,29.54,10.0,South,13.8,-,0.01,,Overcast,170,2012-11-11 07:55:00
2:15 AM,55.4,53.6,94,29.56,10.0,SSW,10.4,-,N/A,,Mostly Cloudy,200,2012-11-11 08:15:00
2:35 AM,55.4,53.6,94,29.57,10.0,SSW,13.8,19.6,N/A,,Overcast,200,2012-11-11 08:35:00
2:55 AM,55.4,53.6,94,29.58,10.0,SW,12.7,16.1,N/A,,Overcast,220,2012-11-11 08:55:00
3:15 AM,53.6,51.8,94,29.59,10.0,SW,12.7,-,N/A,,Overcast,220,2012-11-11 09:15:00
3:35 AM,53.6,50.0,88,29.59,10.0,West,16.1,21.9,N/A,,Overcast,260,2012-11-11 09:35:00
3:55 AM,50.0,48.2,94,29.60,7.0,WSW,18.4,-,N/A,,Overcast,250,2012-11-11 09:55:00
4:15 AM,50.0,46.4,87,29.62,7.0,West,17.3,21.9,N/A,,Overcast,260,2012-11-11 10:15:00
4:35 AM,46.4,44.6,93,29.62,10.0,WSW,12.7,-,N/A,,Overcast,250,2012-11-11 10:35:00
4:55 AM,46.4,44.6,93,29.64,10.0,West,11.5,-,N/A,,Overcast,270,2012-11-11 10:55:00
5:35 AM,42.8,41.0,93,29.66,10.0,West,10.4,13.8,N/A,,Overcast,260,2012-11-11 11:35:00
5:55 AM,41.0,41.0,100,29.67,3.0,West,10.4,-,N/A,Rain,Light Rain,270,2012-11-11 11:55:00
6:15 AM,41.0,39.2,93,29.67,2.5,West,11.5,-,N/A,Rain,Light Rain,280,2012-11-11 12:15:00
6:55 AM,37.4,37.4,100,29.71,2.5,West,10.4,16.1,N/A,Rain,Light Rain,270,2012-11-11 12:55:00
7:35 AM,35.6,35.6,100,29.72,2.0,West,11.5,18.4,N/A,Snow,Light Snow,270,2012-11-11 13:35:00
7:55 AM,35.6,35.6,100,29.71,1.8,West,8.1,-,0.01,Rain,Light Rain,260,2012-11-11 13:55:00
8:15 AM,35.6,33.8,93,29.73,5.0,West,12.7,-,N/A,,Light Drizzle,270,2012-11-11 14:15:00
8:35 AM,35.6,33.8,93,29.74,7.0,West,11.5,-,N/A,Rain,Light Rain,270,2012-11-11 14:35:00
8:55 AM,33.8,33.8,100,29.74,5.0,West,12.7,-,N/A,,Overcast,270,2012-11-11 14:55:00
9:15 AM,33.8,32.0,93,29.77,7.0,West,13.8,20.7,N/A,,Overcast,270,2012-11-11 15:15:00
9:35 AM,33.8,32.0,93,29.76,10.0,West,13.8,20.7,N/A,,Overcast,270,2012-11-11 15:35:00
9:55 AM,32.0,32.0,100,29.75,10.0,West,11.5,-,N/A,,Overcast,270,2012-11-11 15:55:00
10:15 AM,32.0,32.0,100,29.75,10.0,West,10.4,-,N/A,,Overcast,270,2012-11-11 16:15:00
10:35 AM,32.0,32.0,100,29.76,10.0,West,10.4,17.3,N/A,,Overcast,270,2012-11-11 16:35:00
11:15 AM,32.0,32.0,100,29.78,4.0,West,10.4,-,N/A,Snow,Light Snow,280,2012-11-11 17:15:00
11:35 AM,32.0,32.0,100,29.76,3.0,West,10.4,-,N/A,Snow,Light Snow,280,2012-11-11 17:35:00
12:15 PM,32.0,30.2,93,29.78,4.0,West,13.8,-,N/A,,Overcast,260,2012-11-11 18:15:00
12:35 PM,32.0,30.2,93,29.75,7.0,West,8.1,-,N/A,,Overcast,270,2012-11-11 18:35:00
12:55 PM,32.0,30.2,93,29.74,7.0,West,11.5,18.4,N/A,Snow,Light Snow,280,2012-11-11 18:55:00
1:15 PM,32.0,30.2,93,29.77,10.0,West,13.8,-,N/A,,Overcast,260,2012-11-11 19:15:00
1:35 PM,32.0,28.4,87,29.78,10.0,West,11.5,18.4,N/A,,Overcast,260,2012-11-11 19:35:00
1:55 PM,32.0,28.4,87,29.78,10.0,West,12.7,18.4,N/A,,Overcast,270,2012-11-11 19:55:00
2:15 PM,32.0,28.4,87,29.76,10.0,West,10.4,-,N/A,,Overcast,280,2012-11-11 20:15:00
2:35 PM,32.0,28.4,87,29.77,10.0,West,10.4,-,N/A,,Overcast,280,2012-11-11 20:35:00
2:55 PM,32.0,28.4,87,29.78,10.0,West,12.7,-,N/A,,Overcast,270,2012-11-11 20:55:00
3:15 PM,32.0,26.6,80,29.77,10.0,WNW,13.8,20.7,N/A,,Overcast,290,2012-11-11 21:15:00
3:35 PM,32.0,26.6,80,29.79,10.0,West,13.8,-,N/A,,Overcast,280,2012-11-11 21:35:00
3:55 PM,30.2,24.8,80,29.79,10.0,West,11.5,-,N/A,,Overcast,280,2012-11-11 21:55:00
4:15 PM,30.2,26.6,86,29.81,10.0,West,15.0,18.4,N/A,,Overcast,270,2012-11-11 22:15:00
4:35 PM,30.2,24.8,80,29.81,10.0,West,15.0,-,N/A,,Overcast,260,2012-11-11 22:35:00
4:55 PM,28.4,23.0,80,29.83,10.0,West,15.0,20.7,N/A,,Overcast,260,2012-11-11 22:55:00
5:15 PM,28.4,23.0,80,29.83,10.0,West,13.8,21.9,N/A,,Overcast,280,2012-11-11 23:15:00
5:35 PM,28.4,23.0,80,29.83,10.0,West,18.4,23.0,N/A,,Overcast,270,2012-11-11 23:35:00
5:55 PM,28.4,23.0,80,29.85,10.0,West,16.1,20.7,N/A,,Overcast,260,2012-11-11 23:55:00
6:15 PM,28.4,21.2,74,29.87,10.0,West,11.5,20.7,N/A,,Overcast,280,2012-11-12 00:15:00
6:35 PM,28.4,21.2,74,29.88,10.0,West,11.5,-,N/A,,Overcast,270,2012-11-12 00:35:00
6:55 PM,26.6,19.4,74,29.87,10.0,WNW,13.8,20.7,N/A,,Overcast,300,2012-11-12 00:55:00
7:15 PM,26.6,19.4,74,29.88,10.0,West,16.1,-,N/A,,Overcast,280,2012-11-12 01:15:00
7:35 PM,26.6,19.4,74,29.89,10.0,West,11.5,17.3,N/A,,Overcast,270,2012-11-12 01:35:00
7:55 PM,26.6,19.4,74,29.89,10.0,West,10.4,21.9,N/A,,Overcast,280,2012-11-12 01:55:00
8:15 PM,26.6,19.4,74,29.90,10.0,West,12.7,20.7,N/A,,Overcast,270,2012-11-12 02:15:00
8:35 PM,26.6,19.4,74,29.91,10.0,West,11.5,21.9,N/A,,Overcast,260,2012-11-12 02:35:00
8:55 PM,26.6,19.4,74,29.92,10.0,West,11.5,-,N/A,,Overcast,280,2012-11-12 02:55:00
9:15 PM,26.6,17.6,69,29.92,10.0,West,10.4,18.4,N/A,,Overcast,270,2012-11-12 03:15:00
9:35 PM,26.6,19.4,74,29.92,10.0,West,12.7,18.4,N/A,,Overcast,280,2012-11-12 03:35:00
9:55 PM,26.6,19.4,74,29.92,10.0,West,12.7,16.1,N/A,,Overcast,270,2012-11-12 03:55:00
10:15 PM,26.6,17.6,69,29.93,10.0,West,16.1,21.9,N/A,,Overcast,270,2012-11-12 04:15:00
10:35 PM,26.6,17.6,69,29.93,10.0,West,10.4,-,N/A,,Overcast,270,2012-11-12 04:35:00
10:55 PM,24.8,19.4,80,29.93,10.0,WSW,9.2,-,N/A,Snow,Light Snow,250,2012-11-12 04:55:00
11:15 PM,24.8,17.6,74,29.93,10.0,WSW,9.2,-,N/A,,Overcast,240,2012-11-12 05:15:00
11:35 PM,24.8,19.4,80,29.93,7.0,WSW,11.5,-,N/A,Snow,Light Snow,240,2012-11-12 05:35:00
11:55 PM,23.0,15.8,74,29.94,10.0,SW,16.1,-,N/A,,Overcast,230,2012-11-12 05:55:00